STARLINK-5702, 55622

Orbit data source: Space-Track

STARLINK-5702, 55622 is a payload satellite owned by SpaceX/Seattle (US) in LEO that was launched on Sun, 12 Feb 2023 UTC via an FALCON 9 launch vehicle from the Air Force Eastern Test Range (AFETR). Payload-class satellites include a variety of spacecraft equipped with specific instruments for various scientific and technological missions. These include communications satellites like Starlink; space stations such as the ISS; scientific satellites like the Hubble; Earth observation satellites from companies like Planet Labs, Umbra, and HawkEye 360; GPS; miniature CubeSats for education and research; and military/defense satellites.

Loading next visibility...
Identifier
55622, 2023-020BF
Orbit
LEO
Country
Flag of USUS
Related business
Manufacturer
SpaceX/Seattle
Mission
Operational Commercial Communications
Bus & Motor
STARLINK, Unknown motor
Mass
305 kg wet, ~290 kg dry
Launch date (UTC)
2023-02-12 (3 years ago)
Launch vehicle
FALCON 9
Launch site
Air Force Eastern Test Range (AFETR)
Object type
Payload
Rocket body
Debris
Shape & HBR
Box + 1 Pan, 10.1 m
Radar Cross Section
13.562 m², Large (>1 m²)

Expand to show TLE details & history
Last TLE update: 1 day ago

TLE from 1 day ago
0 STARLINK-5702
1 55622U 23020BF  25312.64083738 -.00010421  00000-0 -75638-3 0  9991
2 55622  43.0047 289.1353 0001388 248.0854 111.9841 15.02592031150865
Epoch: 2025-11-08T15:22Z
TLE epoch observation values (Epoch: 2025-11-08T15:22:48.349Z)
Latitude
-0.00002°
Longitude
10.36629°
Altitude
559.046 km
Speed
7.584 km/s
True Right ascension
19h 16m 32s
True Declination
0° 00' 00"
Sunlit
Object was in daylight at epoch
Visualization orbit readout
Latitude
Unknown
Longitude
Unknown
Altitude
Unknown
Speed
Unknown
Apparent Right ascension
Unknown
Apparent Declination
Unknown
Sunlit
N/A
Visualization observer readout
Local Sidereal Time
18:49:19
Azimuth
Unknown
Elevation
Unknown
Doppler factor
Unknown
Orbital elements
Apogee altitude
561.793 km
Perigee altitude
559.867 km
Semi-major axis
6,938.967 km
Eccentricity
0.00014
Inclination
43.0047°
RAAN
289.1353°
Arg. of periapsis
248.0854°
True anomaly
111.99885°
Mean anomaly
111.9841°
Eccentric anomaly
111.99147°
Mean motion
3.75492 °/min
Orbital period
95.87 mins
BSTAR
-0.00075638
Loading maneuver chart data...
Computing Atmospheric mass density...
Loading historical data...
Loading historical data...
Loading historical data...
Loading historical data...
Loading historical data...
Loading historical data...
Loading historical data...

Documentation

Showing up to 5 results
|